Time,TemperatureF,DewpointF,PressureIn,WindDirection,WindDirectionDegrees,WindSpeedMPH,WindSpeedGustMPH,Humidity,HourlyPrecipIn,Conditions,Clouds,dailyrainin,SoftwareType,DateUTC
2014-11-23 00:12:00,44.3,36.0,30.05,South,173,0.0,0.0,72,0.00,,,0.02,weatherlink.com 1.10,2014-11-23 05:12:00,
2014-11-23 00:27:00,43.6,36.0,30.05,South,173,0.0,0.0,74,0.00,,,0.00,weatherlink.com 1.10,2014-11-23 05:27:00,
2014-11-23 00:42:00,43.7,36.0,30.06,South,173,0.0,0.0,74,0.00,,,0.00,weatherlink.com 1.10,2014-11-23 05:42:00,
2014-11-23 00:57:00,44.3,37.0,30.05,South,173,0.0,0.0,74,0.00,,,0.00,weatherlink.com 1.10,2014-11-23 05:57:00,
2014-11-23 01:12:00,45.4,36.0,30.05,South,173,0.0,0.0,71,0.00,,,0.00,weatherlink.com 1.10,2014-11-23 06:12:00,
2014-11-23 01:27:00,45.7,37.0,30.04,South,173,0.0,0.0,71,0.00,,,0.00,weatherlink.com 1.10,2014-11-23 06:27:00,
2014-11-23 01:42:00,46.3,37.0,30.04,South,173,0.0,0.0,70,0.00,,,0.00,weatherlink.com 1.10,2014-11-23 06:42:00,
2014-11-23 01:57:00,46.4,37.0,30.04,South,173,0.0,0.0,70,0.00,,,0.00,weatherlink.com 1.10,2014-11-23 06:57:00,
2014-11-23 02:12:00,46.3,37.0,30.04,South,173,0.0,0.0,71,0.00,,,0.00,weatherlink.com 1.10,2014-11-23 07:12:00,
2014-11-23 02:27:00,46.4,37.0,30.04,South,173,0.0,0.0,71,0.00,,,0.00,weatherlink.com 1.10,2014-11-23 07:27:00,
2014-11-23 02:42:00,46.4,38.0,30.03,South,173,0.0,0.0,72,0.00,,,0.00,weatherlink.com 1.10,2014-11-23 07:42:00,
2014-11-23 02:57:00,46.2,38.0,30.03,South,173,0.0,0.0,73,0.00,,,0.00,weatherlink.com 1.10,2014-11-23 07:57:00,
2014-11-23 03:12:00,46.2,38.0,30.03,South,173,0.0,0.0,73,0.00,,,0.00,weatherlink.com 1.10,2014-11-23 08:12:00,
2014-11-23 03:27:00,46.2,38.0,30.02,South,173,0.0,0.0,73,0.00,,,0.00,weatherlink.com 1.10,2014-11-23 08:27:00,
2014-11-23 03:42:00,46.3,38.0,30.02,South,173,0.0,0.0,74,0.00,,,0.00,weatherlink.com 1.10,2014-11-23 08:42:00,
2014-11-23 03:57:00,46.9,39.0,30.01,South,173,0.0,0.0,73,0.00,,,0.00,weatherlink.com 1.10,2014-11-23 08:57:00,
2014-11-23 04:12:00,46.8,39.0,30.01,South,173,0.0,0.0,73,0.00,,,0.00,weatherlink.com 1.10,2014-11-23 09:12:00,
2014-11-23 04:27:00,46.5,39.0,30.01,South,173,0.0,0.0,75,0.00,,,0.00,weatherlink.com 1.10,2014-11-23 09:27:00,
2014-11-23 04:42:00,46.6,39.0,30.01,South,173,0.0,0.0,74,0.00,,,0.00,weatherlink.com 1.10,2014-11-23 09:42:00,
2014-11-23 04:57:00,46.5,38.0,30.00,South,173,0.0,0.0,73,0.00,,,0.00,weatherlink.com 1.10,2014-11-23 09:57:00,
2014-11-23 05:12:00,46.2,38.0,30.00,South,173,0.0,0.0,74,0.00,,,0.00,weatherlink.com 1.10,2014-11-23 10:12:00,
2014-11-23 05:27:00,46.0,39.0,30.00,South,173,0.0,0.0,75,0.00,,,0.00,weatherlink.com 1.10,2014-11-23 10:27:00,
2014-11-23 05:42:00,45.8,39.0,29.99,South,173,0.0,0.0,76,0.00,,,0.00,weatherlink.com 1.10,2014-11-23 10:42:00,
2014-11-23 05:57:00,45.8,38.0,29.98,South,173,0.0,0.0,75,0.00,,,0.00,weatherlink.com 1.10,2014-11-23 10:57:00,
2014-11-23 06:12:00,45.9,38.0,29.97,South,173,0.0,0.0,75,0.00,,,0.00,weatherlink.com 1.10,2014-11-23 11:12:00,
2014-11-23 06:27:00,45.9,38.0,29.96,South,173,0.0,0.0,74,0.00,,,0.00,weatherlink.com 1.10,2014-11-23 11:27:00,
2014-11-23 06:42:00,45.6,38.0,29.97,South,173,0.0,0.0,75,0.00,,,0.00,weatherlink.com 1.10,2014-11-23 11:42:00,
2014-11-23 06:57:00,45.1,38.0,29.98,SE,134,0.0,1.0,76,0.00,,,0.00,weatherlink.com 1.10,2014-11-23 11:57:00,
2014-11-23 07:12:00,45.5,38.0,29.98,SE,132,0.0,4.0,76,0.00,,,0.00,weatherlink.com 1.10,2014-11-23 12:12:00,
2014-11-23 07:27:00,45.5,38.0,29.99,SE,139,3.0,3.0,76,0.00,,,0.00,weatherlink.com 1.10,2014-11-23 12:27:00,
2014-11-23 07:42:00,46.0,39.0,29.99,South,173,0.0,0.0,76,0.00,,,0.00,weatherlink.com 1.10,2014-11-23 12:42:00,
2014-11-23 07:57:00,46.5,39.0,29.98,SSE,147,0.0,0.0,76,0.00,,,0.00,weatherlink.com 1.10,2014-11-23 12:57:00,
2014-11-23 08:12:00,47.0,40.0,29.98,SE,146,0.0,0.0,76,0.00,,,0.00,weatherlink.com 1.10,2014-11-23 13:12:00,
2014-11-23 08:28:00,47.6,40.0,29.97,SE,146,0.0,0.0,76,0.00,,,0.00,weatherlink.com 1.10,2014-11-23 13:28:00,
2014-11-23 08:43:00,48.4,41.0,29.96,SE,146,0.0,0.0,75,0.00,,,0.00,weatherlink.com 1.10,2014-11-23 13:43:00,
2014-11-23 08:58:00,49.2,41.0,29.96,SE,146,0.0,0.0,74,0.00,,,0.00,weatherlink.com 1.10,2014-11-23 13:58:00,
2014-11-23 09:13:00,50.1,42.0,29.95,SE,146,0.0,0.0,73,0.00,,,0.00,weatherlink.com 1.10,2014-11-23 14:13:00,
2014-11-23 09:28:00,51.5,42.0,29.95,SE,146,0.0,0.0,70,0.00,,,0.00,weatherlink.com 1.10,2014-11-23 14:28:00,
2014-11-23 09:43:00,52.6,42.0,29.94,SE,146,0.0,0.0,68,0.00,,,0.00,weatherlink.com 1.10,2014-11-23 14:43:00,
2014-11-23 09:58:00,53.8,42.0,29.93,SSE,153,0.0,3.0,65,0.00,,,0.00,weatherlink.com 1.10,2014-11-23 14:58:00,
2014-11-23 10:13:00,55.0,42.0,29.92,ESE,109,0.0,5.0,63,0.00,,,0.00,weatherlink.com 1.10,2014-11-23 15:13:00,
2014-11-23 10:28:00,55.9,42.0,29.91,SE,140,0.0,0.0,61,0.00,,,0.00,weatherlink.com 1.10,2014-11-23 15:28:00,
2014-11-23 10:43:00,57.0,43.0,29.90,South,182,0.0,1.0,59,0.00,,,0.00,weatherlink.com 1.10,2014-11-23 15:43:00,
2014-11-23 10:58:00,57.6,43.0,29.89,East,98,9.0,9.0,59,0.00,,,0.00,weatherlink.com 1.10,2014-11-23 15:58:00,
2014-11-23 11:13:00,58.2,43.0,29.88,SE,139,0.0,8.0,58,0.00,,,0.00,weatherlink.com 1.10,2014-11-23 16:13:00,
2014-11-23 11:28:00,58.7,43.0,29.86,South,187,0.0,7.0,57,0.00,,,0.00,weatherlink.com 1.10,2014-11-23 16:28:00,
2014-11-23 11:43:00,59.3,43.0,29.84,South,186,0.0,5.0,56,0.00,,,0.00,weatherlink.com 1.10,2014-11-23 16:43:00,
2014-11-23 11:58:00,60.0,44.0,29.82,SSE,163,0.0,3.0,56,0.00,,,0.00,weatherlink.com 1.10,2014-11-23 16:58:00,
2014-11-23 12:13:00,60.8,44.0,29.80,SSE,166,0.0,7.0,55,0.00,,,0.00,weatherlink.com 1.10,2014-11-23 17:13:00,
2014-11-23 12:28:00,61.0,45.0,29.79,SE,143,0.0,7.0,55,0.00,,,0.00,weatherlink.com 1.10,2014-11-23 17:28:00,
2014-11-23 12:43:00,60.7,45.0,29.77,SE,130,0.0,7.0,57,0.00,,,0.00,weatherlink.com 1.10,2014-11-23 17:43:00,
2014-11-23 12:59:00,60.1,46.0,29.76,East,86,0.0,1.0,60,0.00,,,0.00,weatherlink.com 1.10,2014-11-23 17:59:00,
2014-11-23 13:14:00,60.3,46.0,29.75,ESE,118,0.0,6.0,59,0.00,,,0.00,weatherlink.com 1.10,2014-11-23 18:14:00,
2014-11-23 13:29:00,60.2,47.0,29.74,SE,128,0.0,5.0,62,0.00,,,0.00,weatherlink.com 1.10,2014-11-23 18:29:00,
2014-11-23 13:44:00,60.6,47.0,29.73,ESE,109,0.0,10.0,62,0.00,,,0.00,weatherlink.com 1.10,2014-11-23 18:44:00,
2014-11-23 13:59:00,60.5,49.0,29.71,ESE,102,0.0,12.0,65,0.00,,,0.00,weatherlink.com 1.10,2014-11-23 18:59:00,
2014-11-23 14:14:00,60.4,48.0,29.70,East,88,0.0,10.0,65,0.00,,,0.00,weatherlink.com 1.10,2014-11-23 19:14:00,
2014-11-23 14:29:00,59.6,49.0,29.68,South,182,0.0,13.0,69,0.00,,,0.00,weatherlink.com 1.10,2014-11-23 19:29:00,
2014-11-23 14:44:00,58.8,49.0,29.68,ESE,107,0.0,7.0,71,0.00,,,0.00,weatherlink.com 1.10,2014-11-23 19:44:00,
2014-11-23 14:59:00,58.3,49.0,29.66,SE,126,0.0,10.0,71,0.00,,,0.00,weatherlink.com 1.10,2014-11-23 19:59:00,